EW0395 Weather Reports


Display with metric or nautical units.
time (UTC)temp
F
wind
direction
speed
MPH
gust
MPH
rain 1hr
in
rain 24hr
in
rain mn
in
humidity
%
barometer
mb
20260502231535 44 0 0.0 0.0 0.00 0.34 0.34 94 1009.9
20260502230037 44 0 0.0 0.0 0.00 0.34 0.34 93 1009.9
20260502224543 45 0 0.0 1.0 0.00 0.34 0.34 93 1009.8
20260502223042 45 0 0.0 0.0 0.00 0.34 0.34 92 1009.8
20260502221533 46 0 0.0 0.0 0.00 0.34 0.34 92 1009.8
20260502220035 47 0 0.0 0.0 0.00 0.34 0.34 92 1009.6
20260502214532 47 0 0.0 1.0 0.00 0.34 0.34 91 1009.7
20260502213031 47 0 0.0 0.0 0.00 0.34 0.34 90 1009.6
20260502211534 47 0 0.0 0.0 0.01 0.34 0.34 88 1009.7
20260502210037 49 0 0.0 2.0 0.02 0.34 0.34 87 1009.7
20260502204533 47 0 0.0 1.0 0.03 0.34 0.34 92 1009.7
20260502203038 47 154 0.0 3.0 0.05 0.34 0.34 93 1009.7
20260502201533 45 0 0.0 0.0 0.06 0.33 0.33 94 1009.8
20260502200032 45 0 0.0 1.0 0.08 0.32 0.32 92 1009.9
20260502194533 44 229 0.0 1.0 0.11 0.31 0.31 93 1010.0
20260502193033 45 173 0.0 3.0 0.09 0.29 0.29 93 1010.1
20260502191531 46 146 0.0 1.0 0.07 0.27 0.27 92 1010.1
20260502190037 46 0 0.0 3.0 0.04 0.24 0.24 92 1010.0
20260502184530 47 153 0.0 1.0 0.00 0.20 0.20 90 1010.1
20260502183035 48 0 0.0 1.0 0.00 0.20 0.20 87 1010.2
20260502181542 49 109 0.0 3.0 0.00 0.20 0.20 83 1010.2
20260502163046 46 0 0.0 1.0 0.04 0.20 0.20 93 1010.5
20260502161533 46 0 0.0 1.0 0.04 0.20 0.20 95 1010.6
20260502151548 44 0 0.0 0.0 0.04 0.16 0.16 94 1010.9
20260502123038 41 0 0.0 0.0 0.00 0.11 0.11 98 1011.5
20260502121530 41 0 0.0 0.0 0.00 0.11 0.11 98 1011.4
20260502114533 40 0 0.0 0.0 0.00 0.12 0.11 98 1011.1
20260502113031 40 0 0.0 0.0 0.00 0.12 0.11 98 1011.2
20260502111530 40 0 0.0 0.0 0.00 0.12 0.11 98 1011.4
20260502110032 40 0 0.0 0.0 0.00 0.12 0.11 98 1011.1
20260502104535 40 0 0.0 0.0 0.00 0.12 0.11 98 1010.8
20260502103029 39 0 0.0 0.0 0.00 0.12 0.11 98 1010.9
20260502101532 39 0 0.0 0.0 0.01 0.12 0.11 97 1011.1
20260502091530 39 0 0.0 0.0 0.03 0.11 0.10 97 1011.0
20260502070042 39 0 0.0 0.0 0.04 0.06 0.05 95 1011.2
20260502064535 39 0 0.0 0.0 0.05 0.06 0.05 95 1011.7
20260502063035 39 0 0.0 1.0 0.05 0.06 0.05 95 1011.9
20260502061539 39 0 0.0 0.0 0.03 0.04 0.03 94 1012.3
20260502060029 39 0 0.0 0.0 0.01 0.02 0.01 93 1012.1
20260502054532 39 0 0.0 1.0 0.00 0.01 0.00 91 1011.9
20260502053030 39 0 0.0 0.0 0.00 0.01 0.00 90 1011.9
20260502051532 39 0 0.0 1.0 0.00 0.01 0.00 89 1011.8
20260502050030 39 0 0.0 1.0 0.00 0.01 0.00 85 1011.9
20260502044531 38 0 0.0 0.0 0.00 0.01 0.00 83 1011.5
20260502043030 38 0 0.0 0.0 0.00 0.01 0.00 84 1011.4
20260502041533 38 0 0.0 0.0 0.00 0.01 0.00 84 1011.2
20260502040037 38 0 0.0 0.0 0.00 0.01 0.00 84 1011.2
20260502034531 37 0 0.0 0.0 0.00 0.01 0.01 84 1011.2
20260502033032 37 0 0.0 0.0 0.00 0.01 0.01 85 1011.1
20260502031533 37 0 0.0 0.0 0.00 0.01 0.01 85 1011.2
20260502030034 36 0 0.0 0.0 0.00 0.01 0.01 85 1011.1
20260502024532 37 0 0.0 0.0 0.00 0.01 0.01 82 1011.1
20260502023030 37 0 0.0 0.0 0.00 0.01 0.01 82 1011.1
20260502021532 38 0 0.0 0.0 0.00 0.01 0.01 80 1011.2
20260502020030 39 0 0.0 0.0 0.00 0.01 0.01 77 1011.3
20260502014533 40 0 0.0 0.0 0.00 0.06 0.01 76 1011.2
20260502013033 40 0 0.0 0.0 0.00 0.06 0.01 73 1011.3
20260502011533 40 0 0.0 0.0 0.00 0.06 0.01 74 1011.2
20260502010030 41 0 0.0 0.0 0.00 0.06 0.01 72 1011.1
20260502004534 42 0 0.0 0.0 0.00 0.11 0.01 70 1011.0
20260502003029 43 0 0.0 0.0 0.00 0.11 0.01 68 1010.9
20260502001534 44 0 0.0 0.0 0.00 0.11 0.01 65 1010.8
20260502000036 46 0 0.0 0.0 0.00 0.11 0.01 63 1010.5
20260501234531 47 0 0.0 0.0 0.00 0.16 0.01 58 1010.2
20260501233035 49 0 0.0 0.0 0.00 0.16 0.01 50 1009.9